RH
80 80 74 70 72 76 76 75 77 82 81 77 74 71 69 70 71 67 64 66 69 71 71 78 87 81 75 75 75 75 72 70 67 66 73 82 87 91 92 93 91 87 89 90 88 90 90 90 92 92 92 91 90 90 90 89 90 90 90 91 89 89 89 88 90 90 88 88 91 93 90 90 91 90 93 94 92 88 84 83 84 85 87 85 86
81 82 77 75 75 77 77 76 76 77 78 78 76 73 70 69 69 69 68 68 68 70 69 75 84 81 76 77 76 76 74 71 68 67 72 78 83 89 89 87 83 82 90 90 89 91 91 91 90 87 87 88 89 90 88 88 90 91 91 92 91 90 92 91 90 89 87 87 91 92 92 93 92 90 91 89 89 88 82 81 84 86 88 87 88
83 84 82 81 81 80 79 82 82 75 71 72 72 71 71 69 67 67 67 66 67 70 69 72 79 79 77 79 78 77 75 72 70 68 68 68 73 82 83 81 81 82 88 90 91 92 91 90 87 85 86 87 89 86 86 89 89 90 91 90 89 88 89 89 89 91 89 90 92 90 90 94 94 90 87 88 90 87 83 88 91 91 92 91 89
84 85 85 85 87 84 81 86 85 75 69 67 66 67 70 71 68 67 67 67 69 70 69 73 77 77 77 79 80 80 76 73 72 67 62 59 65 76 81 86 92 91 90 88 87 88 89 90 90 90 91 91 91 87 87 89 88 89 91 90 89 90 89 87 89 91 88 89 91 89 88 92 93 92 90 91 90 86 88 95 95 93 91 88 87
85 85 86 87 90 87 84 87 85 78 74 72 71 69 71 73 71 70 69 69 72 71 71 74 75 74 74 77 82 81 77 76 74 67 61 58 63 73 81 90 96 96 91 80 80 87 91 93 91 90 92 92 91 90 88 85 86 89 91 93 91 91 93 91 92 91 90 91 90 90 89 89 90 91 90 89 88 87 92 97 95 94 91 88 90
86 84 85 87 91 91 87 87 86 83 80 78 77 72 72 73 73 73 73 74 75 72 72 73 74 75 75 79 84 83 79 79 76 69 64 62 66 71 81 92 95 96 89 79 86 95 95 96 91 84 82 89 93 89 86 84 88 89 88 92 91 92 95 92 92 90 90 90 89 90 91 90 89 88 88 89 90 90 93 94 94 93 92 92 94
88 85 84 85 90 92 88 86 86 86 83 79 77 74 75 75 74 76 78 78 76 74 74 73 76 78 80 85 87 84 83 83 78 72 68 67 70 75 83 91 93 92 87 87 97 99 98 98 97 87 70 75 90 88 84 87 91 89 86 91 90 89 90 88 89 88 88 89 89 91 90 90 90 88 89 90 90 91 91 92 92 93 95 96 97
89 86 83 82 85 87 86 84 84 86 83 76 73 75 78 79 78 80 80 79 78 76 77 77 78 83 89 94 92 87 87 87 81 75 74 73 74 78 83 86 87 85 83 93 99 98 99 96 97 94 69 63 82 86 82 83 86 87 87 90 86 82 85 88 90 88 89 91 91 92 92 91 91 91 90 89 90 91 91 92 94 96 96 96 95
90 87 84 81 82 83 83 83 83 86 81 74 75 79 82 82 81 82 80 78 77 78 81 81 80 85 95 100 98 93 91 92 86 78 78 77 76 78 82 83 80 78 81 92 95 95 99 93 89 89 76 69 76 77 79 81 79 82 88 89 83 78 83 89 91 90 91 93 94 94 93 90 88 90 89 88 90 91 92 93 96 97 93 89 88
91 87 84 83 82 82 82 82 85 85 80 79 83 84 84 83 79 79 79 77 76 78 82 85 85 90 98 100 100 98 96 96 91 84 81 79 78 79 81 83 81 81 85 90 93 93 95 92 85 82 79 77 75 72 81 90 83 78 80 82 83 82 84 87 87 91 93 92 93 90 89 88 85 86 87 87 89 89 91 92 94 96 93 91 89
90 86 82 83 84 82 81 82 86 84 82 85 87 84 81 81 78 76 77 77 77 81 82 87 94 98 100 100 100 99 99 100 97 90 82 80 82 81 82 84 85 87 88 90 93 91 90 91 87 79 74 72 78 80 84 92 92 88 84 80 81 79 84 88 83 88 95 93 89 85 85 84 81 81 82 85 88 89 90 91 91 91 93 97 95
89 85 81 82 82 80 80 83 87 85 84 87 85 81 78 78 80 78 77 80 84 84 83 88 98 101 100 100 100 100 100 100 99 95 88 86 86 83 84 86 88 90 89 90 91 88 86 88 86 77 72 76 85 89 88 90 93 98 96 90 84 72 73 83 85 84 82 79 73 65 63 60 64 74 82 85 85 85 84 81 81 80 84 93 94
88 84 80 80 80 78 79 81 88 88 84 87 84 81 79 77 81 81 78 81 88 89 85 90 99 100 99 100 99 99 100 98 99 99 95 93 90 86 88 90 91 94 93 90 86 84 83 83 82 77 79 88 93 95 96 94 95 98 99 99 95 84 71 72 85 79 59 58 57 50 49 46 52 65 72 74 70 70 72 72 78 81 85 90 91
88 87 84 82 78 77 77 78 89 91 85 87 87 82 80 79 80 82 82 82 87 92 89 90 99 101 99 100 101 99 99 98 99 100 98 96 95 94 94 94 94 95 95 91 83 81 81 81 82 80 82 89 92 95 96 96 97 98 99 99 98 100 87 72 81 69 47 65 73 60 56 49 50 60 65 70 70 73 78 81 89 92 92 92 92
90 90 88 85 80 76 75 78 89 92 86 89 89 83 81 82 80 79 82 87 91 94 92 90 95 100 99 98 99 99 99 100 99 100 99 99 100 100 98 97 98 97 97 93 85 80 79 82 85 84 84 87 89 91 92 92 95 97 99 99 97 101 98 84 78 56 39 73 94 77 68 59 61 75 81 85 87 88 90 89 91 92 93 95 96
91 91 90 85 78 77 78 83 92 94 89 88 87 84 82 83 82 76 77 87 98 100 95 91 89 91 96 99 98 97 99 100 100 100 100 99 99 100 99 98 99 99 98 94 90 86 83 86 90 89 87 87 89 89 89 89 91 94 94 95 97 98 101 91 76 52 32 61 93 88 82 82 84 91 93 92 93 97 99 94 91 91 94 97 96
91 92 91 85 80 82 85 88 93 96 94 87 83 85 86 84 82 77 74 79 91 98 97 94 87 80 84 92 95 96 100 99 97 99 100 99 98 99 100 99 99 100 97 93 93 94 92 93 93 92 88 86 89 88 88 90 90 92 89 89 95 97 100 91 75 60 37 49 87 95 93 97 96 96 95 94 95 97 99 93 88 89 92 95 93
93 94 92 88 87 89 88 87 89 96 95 87 84 87 89 86 81 77 76 75 78 89 97 94 89 82 77 80 83 86 94 97 97 99 100 100 98 99 100 99 99 99 96 93 94 95 95 96 94 91 88 86 90 90 91 96 96 95 92 89 92 94 98 94 82 70 45 48 85 97 94 96 95 96 96 96 97 98 98 91 84 80 77 79 81
94 96 93 91 92 92 90 86 87 94 95 89 86 88 88 86 82 77 76 77 75 82 92 92 91 89 82 82 82 79 82 88 93 97 100 100 99 100 100 99 98 98 98 95 94 94 93 94 92 88 88 88 91 93 93 97 98 98 95 90 91 92 96 98 93 80 58 59 82 90 92 96 93 94 97 97 98 100 94 76 64 58 51 52 57
95 95 93 92 93 96 96 89 87 93 93 87 86 87 87 85 83 79 76 78 77 76 83 89 91 89 85 88 87 81 79 80 84 91 96 99 100 100 100 99 99 99 99 95 93 94 92 90 88 86 88 88 89 93 94 96 98 98 96 90 91 92 94 98 98 92 81 79 86 88 93 97 93 95 98 95 93 94 77 48 37 38 35 37 37
96 93 92 92 92 96 96 90 88 90 89 86 86 87 87 85 82 80 79 80 80 75 76 81 84 83 86 90 87 84 86 84 83 87 92 98 100 100 100 99 100 100 99 95 94 95 91 88 87 86 87 86 86 89 91 96 98 98 95 91 92 92 94 97 97 95 91 93 96 93 94 97 96 96 96 92 92 87 59 32 29 31 29 29 27
95 92 92 92 93 94 92 86 84 87 87 86 86 88 87 85 83 80 80 83 83 78 75 76 78 80 84 87 85 87 91 91 89 87 89 95 97 98 100 100 100 100 99 96 95 93 90 88 86 87 86 81 79 83 89 93 94 94 93 93 94 92 93 97 98 96 93 96 97 93 95 99 96 97 98 95 88 67 39 27 29 27 25 26 25
93 91 92 92 93 92 90 87 86 86 87 84 85 87 86 86 86 83 82 84 83 80 78 76 78 83 85 83 81 80 81 86 88 87 87 93 97 98 100 100 98 99 99 97 95 92 91 89 87 88 85 75 74 81 86 87 87 89 91 93 94 94 97 99 99 98 96 96 96 93 96 97 98 101 94 75 55 37 29 31 29 26 26 26 24
93 91 91 91 92 92 91 90 89 87 86 84 85 86 85 87 87 84 84 84 82 80 80 79 79 83 85 81 79 75 73 77 80 80 81 86 94 98 99 99 98 98 99 98 97 95 92 91 88 89 84 70 71 80 79 75 78 83 88 92 94 94 97 99 100 100 98 97 96 97 99 98 100 91 61 38 34 37 41 38 29 27 27 26 25
93 90 88 89 90 90 91 90 88 87 87 87 87 87 86 87 87 85 84 83 81 79 79 79 79 80 80 79 79 77 74 75 76 77 79 82 92 100 98 96 96 98 100 98 99 98 96 94 90 89 86 72 71 80 74 63 65 73 81 86 91 95 96 98 101 99 98 100 97 99 100 92 89 76 48 39 49 54 48 35 28 27 26 30 35
88 85 83 86 88 87 89 90 87 87 88 87 87 88 88 88 87 85 83 81 80 78 78 78 78 77 78 78 79 79 76 75 75 76 77 79 89 99 98 94 95 97 98 98 99 100 99 98 93 90 90 80 76 82 69 51 50 61 68 71 78 92 96 97 101 100 101 101 97 101 98 78 73 71 58 51 52 47 37 28 25 24 27 35 38
86 84 82 82 85 86 89 90 88 88 87 86 86 88 88 87 85 82 81 80 78 77 78 78 78 77 78 79 79 80 79 77 77 76 76 74 76 86 93 94 96 95 93 95 99 99 97 97 94 93 94 88 82 83 67 46 43 51 56 55 60 82 97 98 99 100 100 99 100 103 84 57 57 62 53 46 42 35 28 23 22 22 26 31 30
85 87 88 85 82 85 89 88 86 86 85 85 85 84 84 82 81 81 80 80 80 79 78 79 80 78 78 81 80 80 79 79 80 78 77 75 71 76 84 88 94 97 95 96 99 98 95 94 93 93 94 90 84 82 66 47 40 41 44 44 43 62 87 98 100 101 101 100 99 87 57 40 48 50 42 38 31 25 22 20 21 22 24 26 25
78 81 88 91 85 83 87 85 84 86 84 84 84 82 81 81 80 82 83 83 83 81 79 80 82 80 80 82 80 77 77 79 80 78 78 78 73 73 77 78 83 92 98 99 99 95 92 92 90 86 86 85 81 76 60 43 36 32 31 32 30 36 53 71 81 85 83 76 66 51 36 36 41 34 28 25 20 19 20 20 21 22 23 25 24
77 76 82 92 92 83 81 83 84 85 82 81 83 81 82 83 82 84 85 86 86 84 80 80 83 83 83 83 79 77 78 78 78 80 80 79 75 73 76 76 76 83 91 96 96 92 88 89 87 80 74 70 68 64 50 35 30 27 25 27 27 27 29 36 44 47 45 39 32 29 28 28 25 20 19 18 17 19 18 19 21 21 23 24 25
79 77 75 87 96 86 78 79 80 80 79 79 82 83 83 84 85 87 87 87 87 85 83 83 84 86 86 83 80 78 80 82 82 83 83 81 79 75 75 77 77 78 80 87 93 90 85 84 82 78 72 61 52 46 38 30 27 26 26 27 28 28 28 28 28 27 26 25 23 21 20 18 17 18 18 18 19 19 19 20 21 22 23 24 25
80 79 69 77 94 88 76 76 74 73 75 77 81 83 83 84 85 85 85 85 86 85 86 88 88 89 87 84 82 81 83 85 84 83 83 82 81 77 74 76 78 78 76 79 85 85 81 80 77 75 74 65 51 40 31 27 26 27 28 29 29 29 28 26 24 22 21 20 18 17 17 19 21 22 22 23 24 24 25 27 27 28 28 28 28
81 78 65 69 85 83 74 74 73 71 72 73 76 80 81 82 83 83 82 82 84 86 88 91 91 91 89 85 84 85 85 85 84 84 84 82 81 79 77 77 76 77 76 75 76 74 72 77 77 74 74 69 58 48 35 25 26 29 30 31 30 28 26 23 20 18 17 18 19 20 23 26 27 30 32 33 33 34 36 37 39 40 39 40 40
80 76 68 71 79 76 71 73 72 71 72 71 72 76 77 78 80 81 81 80 82 86 88 89 89 91 92 88 87 88 86 83 83 84 82 78 78 77 77 78 75 74 74 72 72 69 65 69 72 70 70 66 60 54 40 26 27 32 31 31 28 24 21 19 17 17 17 19 22 25 29 32 35 37 39 40 42 43 44 46 47 48 49 50 50
79 75 72 74 75 72 70 71 70 71 72 71 72 73 73 74 78 80 79 78 81 85 86 86 88 91 93 92 90 90 85 80 81 83 80 76 73 71 74 77 73 70 70 69 69 67 63 63 63 62 62 59 55 52 38 26 28 33 31 30 26 21 19 18 17 18 18 21 26 29 33 36 39 42 43 45 46 47 48 49 50 51 51 51 51
78 72 72 74 71 70 70 69 70 70 71 71 72 72 71 72 75 76 76 77 79 81 81 82 85 87 89 91 92 90 84 81 83 83 78 73 69 68 71 74 72 67 66 66 66 64 60 58 57 57 55 51 50 48 37 27 29 33 32 31 26 21 19 18 19 19 19 23 28 32 36 39 42 44 46 48 48 49 50 50 51 51 51 51 51
75 68 71 73 68 67 68 69 70 70 70 71 71 71 71 71 72 73 74 76 77 79 80 80 82 82 84 88 90 86 81 81 85 82 73 69 68 68 69 69 68 65 64 65 63 60 58 55 53 53 52 49 48 46 38 30 30 32 33 32 27 22 20 19 20 20 21 26 32 36 40 42 45 48 48 50 50 50 51 50 51 51 50 51 51
71 68 70 69 64 65 68 69 70 68 68 69 68 69 69 70 71 70 71 72 74 78 79 80 80 81 83 87 87 84 79 75 75 75 70 67 67 65 61 59 60 61 63 64 59 55 55 53 50 49 48 46 46 44 39 34 32 31 33 34 29 24 21 20 21 21 22 26 33 38 43 45 47 49 50 50 51 51 51 51 51 51 50 50 51
70 70 66 63 63 67 67 66 67 67 67 66 66 67 68 68 67 66 66 68 72 77 79 79 80 81 84 86 83 82 79 70 65 65 63 60 58 55 51 49 51 55 59 59 54 51 52 49 47 47 46 45 47 45 40 36 34 34 34 36 34 29 25 24 23 24 24 26 30 36 42 46 47 48 49 49 50 50 50 50 50 51 51 50 50
70 66 60 61 66 67 65 64 65 65 64 64 63 63 64 63 62 62 63 66 71 76 78 79 82 83 83 79 71 68 69 64 57 55 51 47 44 43 44 47 51 54 55 52 48 47 48 46 45 45 44 45 47 46 41 39 40 38 36 38 38 34 32 30 28 28 26 25 27 31 36 42 45 45 47 47 47 47 48 49 49 49 49 49 50
70 64 58 62 65 64 63 63 63 62 61 60 58 58 58 58 61 64 67 70 73 76 77 80 83 81 74 67 62 60 59 55 50 47 45 43 41 40 44 49 52 53 50 45 43 43 44 44 44 44 44 45 45 44 42 40 38 36 36 39 40 37 37 37 34 33 33 30 29 29 32 36 38 39 42 43 42 43 45 46 47 46 46 46 47
72 65 59 60 62 62 63 62 60 59 58 55 53 54 56 57 62 68 72 74 74 73 77 80 79 74 66 61 60 58 55 52 50 48 46 45 43 43 46 49 49 48 46 44 43 43 41 40 40 40 41 41 40 40 39 37 36 36 37 39 39 38 41 44 41 36 36 35 34 33 34 34 35 36 37 38 37 38 40 41 41 41 42 44 46
73 66 60 59 59 61 61 59 57 56 54 51 50 51 53 55 61 67 71 75 75 74 76 74 70 65 62 59 59 57 56 55 54 52 50 48 48 49 50 51 50 49 49 49 50 50 49 46 46 45 44 42 41 39 37 35 35 36 36 37 40 42 44 49 48 42 40 42 42 41 40 39 40 39 39 40 40 39 40 41 42 41 41 44 47
72 67 62 58 58 59 58 56 55 53 51 50 50 52 53 55 59 62 66 73 75 75 74 70 65 61 57 55 55 54 53 53 52 53 52 50 50 51 52 52 52 52 53 53 53 55 55 56 57 59 59 58 59 58 56 55 53 52 49 45 44 46 48 50 50 46 45 50 56 57 55 53 51 48 48 49 49 48 48 49 49 49 51 54 54
69 64 60 58 57 57 57 55 54 53 51 51 52 52 52 54 56 59 65 71 75 75 73 67 60 55 53 53 52 50 48 48 48 49 48 47 48 51 52 54 57 60 62 62 63 64 64 64 66 69 71 72 73 76 78 78 77 77 74 65 56 52 53 54 55 55 58 67 77 79 75 70 66 63 61 62 62 63 64 64 65 67 70 74 76
63 59 58 58 57 57 56 55 54 54 53 52 52 51 51 52 53 57 64 70 72 70 67 61 55 54 54 54 54 52 49 48 49 50 51 53 57 61 64 68 72 75 76 75 75 75 75 75 76 79 81 81 81 82 83 82 81 83 84 82 76 72 70 71 72 74 79 83 84 86 83 76 73 74 74 74 74 76 77 78 80 81 80 82 87
60 58 57 57 57 56 55 54 54 55 55 53 53 53 52 51 51 56 64 69 68 64 61 59 58 59 59 57 56 56 56 57 60 64 66 67 70 74 77 79 81 81 80 78 78 77 78 78 78 79 80 80 81 83 82 81 83 87 87 86 85 83 81 79 75 76 83 85 82 87 91 85 83 87 88 85 85 85 84 82 82 82 81 80 83
64 60 59 59 56 54 54 54 53 54 57 56 54 54 54 52 52 58 64 64 62 62 65 67 66 64 63 60 60 62 66 68 71 74 77 77 77 80 83 84 83 82 79 79 80 80 81 80 79 79 79 78 80 82 83 83 85 88 89 87 86 83 79 77 73 74 84 90 87 90 94 91 90 94 93 89 86 83 82 82 80 79 79 79 80
68 63 61 62 59 55 54 53 50 51 57 60 57 56 55 52 52 57 62 63 65 69 73 74 71 68 67 65 64 65 67 68 71 73 75 77 78 79 81 81 78 75 73 73 72 71 74 76 77 78 78 79 81 84 86 87 85 85 85 84 83 81 80 81 81 80 86 92 88 86 89 89 89 89 86 82 80 79 79 79 78 77 76 76 76
69 67 64 64 63 59 56 54 50 48 55 60 59 58 57 53 53 58 61 62 67 70 73 77 77 74 73 71 69 67 65 65 67 68 67 69 69 69 70 69 67 66 65 62 57 54 55 58 62 67 70 74 79 82 83 82 80 81 83 84 83 82 82 85 87 86 88 90 84 80 81 82 81 80 77 74 73 76 78 79 78 77 76 75 74
71 69 68 66 67 67 66 64 58 55 60 65 63 61 59 54 52 55 54 58 66 71 71 75 78 76 75 73 70 67 64 60 59 58 55 56 57 58 61 62 60 56 52 47 45 44 44 47 53 59 65 70 74 75 75 75 74 78 85 89 88 85 86 88 90 91 92 89 80 74 75 76 76 77 77 78 80 81 80 79 79 77 75 74 72
Wind_Speed
14 13 12 11 11 11 11 9 10 13 14 14 14 14 15 14 14 14 13 10 7 6 3 4 6 5 5 7 8 8 8 8 8 9 11 11 10 10 10 10 8 9 10 9 8 8 8 7 8 8 7 7 7 6 6 7 8 8 7 7 7 7 7 8 8 8 7 8 9 9 8 8 8 7 7 8 8 9 8 8 9 10 11 10 10
15 14 13 12 11 11 10 9 10 12 14 14 14 13 14 14 14 13 11 8 7 5 3 4 7 7 6 8 9 8 8 8 9 10 11 11 10 10 10 9 8 9 9 8 7 7 7 7 7 7 6 6 6 5 5 7 7 7 7 7 7 7 7 7 8 8 8 9 9 8 9 9 7 6 7 7 7 8 10 11 11 11 11 10 10
15 14 14 13 12 12 11 10 10 11 12 13 13 13 13 13 13 12 10 8 7 7 5 6 8 8 8 9 9 9 9 9 10 10 11 10 10 10 9 9 9 9 10 9 8 7 7 6 6 6 6 6 5 3 4 6 7 6 6 7 7 7 7 7 8 8 8 9 8 8 8 8 8 7 7 8 8 8 12 14 12 11 10 10 11
14 15 14 13 12 12 12 11 10 10 11 12 12 13 14 14 13 12 9 9 8 7 6 7 9 9 9 10 10 11 11 11 11 10 10 10 10 10 10 10 9 8 9 9 9 8 7 6 5 5 6 6 5 4 4 6 7 6 6 6 7 7 7 7 8 8 8 9 8 8 8 8 8 8 8 8 9 10 13 14 12 11 10 11 13
15 15 15 13 13 13 13 12 11 11 11 11 11 13 14 13 12 11 10 9 8 8 7 8 9 10 9 10 11 13 13 12 11 11 10 10 11 10 11 11 10 8 7 8 9 9 8 6 6 5 5 4 5 4 3 5 7 6 6 6 6 6 6 7 8 8 8 9 8 8 8 7 7 7 8 9 9 10 12 13 13 13 12 13 15
17 15 15 14 14 14 13 13 12 10 10 12 12 13 13 12 11 11 10 10 9 9 8 9 9 10 10 10 12 14 14 13 11 11 11 10 10 10 11 11 10 9 7 7 8 9 8 7 6 5 5 5 4 4 3 5 6 6 5 6 6 6 6 7 8 8 8 8 8 9 8 8 8 8 9 9 9 10 11 12 12 13 13 14 14
18 16 16 15 14 14 13 13 12 10 9 12 15 15 13 11 11 11 11 11 10 10 9 9 10 11 12 12 14 16 15 13 12 11 11 10 10 10 11 11 10 8 7 9 8 6 6 6 6 5 5 6 6 5 5 6 6 4 4 6 5 5 6 7 7 7 8 8 8 9 9 8 8 9 9 9 10 10 10 11 11 12 13 13 13
19 17 16 15 14 14 13 13 12 11 10 14 18 16 13 12 12 12 12 12 11 11 10 10 11 12 13 13 14 16 14 13 13 12 11 11 11 10 10 9 8 7 8 9 8 5 4 4 6 5 5 6 6 5 5 5 5 4 5 5 4 4 5 6 7 6 6 8 9 9 9 9 9 9 9 9 10 10 10 11 11 11 12 13 14
21 18 16 15 15 14 13 13 13 14 14 16 18 16 15 14 14 12 12 12 12 13 12 12 12 13 14 13 14 15 15 15 14 12 12 12 11 10 9 8 8 8 9 9 7 5 3 4 6 6 5 6 6 5 5 5 4 5 6 5 3 4 5 6 7 6 6 8 8 8 8 8 9 8 8 9 9 10 10 10 10 10 12 14 15
23 20 17 17 16 15 13 13 16 17 17 17 16 16 15 14 15 14 13 13 14 14 14 13 13 14 14 13 13 14 15 15 14 13 13 12 11 10 9 8 8 8 8 7 6 4 3 4 5 6 5 5 6 6 7 6 4 5 6 5 4 4 5 5 6 7 7 7 7 7 8 8 8 8 8 9 9 9 10 10 9 10 11 12 14
25 23 20 19 18 16 15 15 19 20 18 16 16 17 15 14 15 16 14 14 15 16 15 14 13 14 14 12 13 13 14 14 13 13 12 12 12 10 9 9 8 7 7 6 5 3 3 4 5 6 6 5 5 6 7 6 5 5 5 5 5 4 5 4 4 6 7 6 7 7 7 7 8 8 8 9 9 9 9 9 8 9 10 10 12
25 24 22 21 19 18 16 17 19 20 18 16 17 16 15 15 15 16 16 15 16 15 14 15 16 15 13 11 10 9 10 9 10 12 12 12 12 11 9 8 7 6 6 5 5 4 3 4 6 6 6 5 5 4 5 5 5 4 3 4 4 4 5 5 4 5 6 6 7 7 8 8 8 9 8 8 8 8 8 8 9 9 11 12 13
24 24 23 22 21 20 19 19 20 19 18 17 17 14 13 14 15 17 17 17 17 15 14 17 18 15 11 10 7 5 4 4 5 7 8 11 12 11 10 8 7 6 5 5 5 5 4 5 7 7 6 4 3 3 4 4 4 4 4 4 4 3 3 5 5 4 6 7 8 8 9 9 10 9 9 8 9 9 9 9 10 10 10 10 10
24 24 23 21 22 22 21 21 20 19 19 18 17 15 14 15 16 18 17 17 18 17 17 16 13 11 10 9 7 6 4 1 2 3 3 6 10 11 10 9 8 7 6 5 5 5 5 5 6 8 7 6 5 4 4 4 3 3 4 5 6 5 3 4 6 5 6 9 9 10 10 10 10 10 10 10 10 10 9 8 8 8 8 8 7
23 23 21 20 21 22 23 22 20 19 19 19 18 17 16 16 17 18 17 17 16 19 19 13 12 14 10 5 3 3 3 3 3 2 2 3 7 11 11 10 9 7 7 5 5 5 5 4 5 7 7 8 7 6 5 5 4 4 5 5 5 7 7 6 6 6 7 9 9 9 11 11 11 11 9 8 8 8 7 6 5 5 5 6 6
22 21 21 19 19 21 22 22 20 18 19 20 20 19 17 17 17 18 19 19 17 19 18 13 16 16 8 3 2 1 1 2 4 2 2 2 4 8 10 10 9 8 8 7 5 5 6 5 5 6 6 7 7 7 7 6 5 5 5 5 4 5 8 8 7 7 8 8 8 9 10 10 9 8 6 6 6 5 4 5 5 5 6 5 6
20 20 21 20 19 21 21 21 19 17 18 20 20 18 17 17 18 18 20 21 20 21 18 13 16 17 10 6 3 0 1 3 5 3 2 4 4 5 7 8 8 7 8 8 7 6 7 7 6 6 6 6 7 8 7 7 7 7 7 6 6 6 7 9 8 7 8 8 8 9 9 8 7 6 5 5 5 3 4 6 6 6 6 5 4
19 20 21 21 20 20 21 22 21 19 19 19 19 18 17 17 17 18 20 21 20 22 20 16 17 16 11 7 3 2 6 7 5 1 2 5 4 5 6 6 7 7 7 8 7 7 7 7 7 7 7 7 8 9 9 9 9 9 9 8 8 7 7 9 8 8 8 8 9 10 8 7 7 6 5 5 5 5 6 6 5 5 4 4 3
18 19 20 20 20 20 21 20 20 20 20 19 19 18 17 16 17 18 19 20 20 23 23 19 19 16 9 6 2 4 11 12 6 3 2 3 5 6 6 5 6 6 7 8 8 7 8 8 7 7 7 8 9 9 9 10 9 8 8 8 10 9 8 10 10 9 8 7 9 9 7 7 6 6 6 6 6 7 5 3 3 4 3 3 3
18 18 19 19 19 20 19 19 20 21 20 20 19 18 17 17 18 19 19 20 19 21 23 21 21 18 12 8 3 5 14 14 12 10 4 2 4 4 5 6 6 7 8 8 8 8 7 7 7 7 7 7 8 9 8 9 8 8 7 7 9 11 10 10 12 11 9 9 9 9 8 7 7 8 8 6 5 5 3 3 3 4 4 4 5
17 18 18 18 18 19 18 18 20 21 20 20 20 18 18 19 18 19 21 21 20 20 21 20 21 19 15 10 6 9 13 10 12 13 5 3 4 2 5 6 5 8 9 9 8 7 6 6 6 6 6 6 6 7 7 7 7 7 7 6 7 10 10 10 12 12 12 12 11 9 8 8 8 8 7 5 4 4 3 4 4 5 5 6 6
17 17 18 18 18 18 18 18 19 20 20 19 19 19 19 19 18 19 21 22 22 20 19 18 19 20 17 13 10 13 11 7 11 13 6 4 3 3 7 6 5 7 8 9 8 7 6 5 5 5 4 4 4 4 4 4 5 5 5 6 6 9 9 9 11 12 12 12 11 9 8 9 8 6 6 5 4 4 4 5 6 6 6 6 6
17 17 17 17 18 19 18 18 18 20 20 19 20 20 19 19 19 19 20 21 21 19 18 17 19 20 18 15 14 15 14 12 16 17 11 6 4 5 8 8 7 8 8 8 7 6 6 5 4 3 3 4 3 2 2 2 2 3 4 5 6 7 8 8 10 12 11 9 7 8 7 8 7 6 7 6 5 6 6 7 7 7 7 6 6
19 18 17 17 18 19 19 19 19 19 19 19 20 19 17 18 19 19 20 20 19 18 17 17 18 20 19 16 15 16 17 16 18 20 16 13 11 7 8 9 6 6 8 8 6 7 6 5 4 3 3 3 2 2 3 2 2 3 3 5 5 6 7 9 10 11 10 6 5 7 7 6 6 6 7 6 6 7 8 8 8 7 7 7 7
20 19 19 19 20 19 19 20 19 19 19 19 19 18 17 17 19 19 19 19 18 17 17 16 17 19 19 17 15 16 17 14 14 19 16 14 15 10 8 9 5 4 7 8 8 8 7 6 5 4 3 3 3 3 3 2 3 3 4 5 5 6 7 9 10 10 9 6 6 8 7 6 7 8 7 7 9 9 9 8 8 8 8 8 8
20 21 21 20 20 20 19 19 19 18 18 18 18 17 17 17 18 18 17 17 15 15 15 14 15 17 17 16 15 16 17 13 11 16 17 15 16 15 11 7 5 7 6 6 9 9 8 8 8 5 4 3 3 5 4 3 3 3 4 4 5 6 6 8 9 10 10 9 9 10 9 8 9 9 9 9 10 9 8 8 8 8 9 9 9
20 20 21 20 19 19 19 19 19 19 18 17 17 17 17 18 18 18 16 14 14 14 14 13 13 15 16 15 15 14 15 14 12 14 17 16 15 20 19 9 4 5 4 4 8 10 9 9 9 8 6 4 5 6 5 4 4 3 3 3 4 5 6 7 9 10 11 11 11 11 10 9 10 10 10 9 9 8 7 8 8 8 8 8 7
20 19 19 18 19 20 20 19 18 18 17 16 16 17 18 17 17 17 15 14 14 13 13 13 13 14 15 15 14 13 13 14 13 13 16 15 15 21 24 17 8 4 2 3 5 7 8 9 9 9 8 6 7 8 6 5 4 4 3 3 4 5 5 6 8 9 10 11 11 11 10 9 9 9 9 9 8 7 7 8 8 7 7 6 5
20 20 18 18 18 19 19 19 18 17 17 17 17 18 17 16 16 16 15 14 14 13 13 13 13 14 14 13 13 12 12 13 13 13 15 15 15 19 23 22 17 9 3 3 4 6 8 10 10 9 9 8 8 8 7 6 5 4 4 4 4 4 5 6 7 8 9 10 10 10 9 8 8 8 8 9 8 8 8 8 7 7 6 5 5
21 21 19 19 18 18 19 18 18 18 17 17 18 17 16 16 15 15 15 13 13 13 13 13 13 13 13 12 12 12 11 11 10 11 14 14 14 19 22 21 19 13 8 5 4 7 10 11 11 10 8 8 9 9 8 7 6 5 5 5 5 5 6 6 7 8 9 9 9 9 8 8 8 8 8 9 8 8 8 7 7 6 6 6 5
21 22 21 19 20 18 19 18 19 19 18 17 17 17 16 16 16 14 13 12 12 13 12 13 14 13 12 12 12 11 10 9 9 11 13 13 13 18 21 20 17 13 12 9 4 7 11 12 12 12 9 8 9 9 8 8 7 7 6 6 6 6 7 7 8 9 9 9 9 9 9 9 9 9 9 9 9 8 8 8 7 7 7 7 6
22 22 22 19 20 20 19 19 19 18 18 17 17 17 16 16 15 14 13 12 12 13 13 13 14 13 13 12 12 11 10 8 9 10 11 11 12 17 20 20 16 12 11 10 5 6 11 12 11 13 11 9 9 9 9 9 9 8 8 7 7 8 8 8 9 9 9 9 9 9 9 9 9 9 9 9 9 8 8 8 8 8 8 8 7
21 23 21 19 20 20 19 19 19 18 17 17 16 17 16 15 14 13 13 13 13 13 13 13 13 13 13 13 12 11 9 8 9 10 10 10 12 17 19 19 17 13 11 11 8 6 10 11 12 13 12 10 10 11 11 11 10 10 9 9 9 9 9 9 9 10 10 10 10 10 10 10 10 10 10 9 9 8 8 8 8 8 8 8 7
21 23 21 19 21 20 18 18 18 17 17 16 16 16 15 14 14 14 14 14 14 14 13 13 13 13 13 13 11 10 8 8 10 10 10 10 12 15 17 18 18 16 13 12 10 9 10 12 13 14 13 12 12 12 12 12 11 10 10 10 10 10 10 10 11 11 11 11 11 11 11 11 11 11 11 11 10 10 9 9 9 9 9 8 8
23 22 19 20 21 20 19 18 17 16 16 15 15 16 15 15 15 16 15 14 14 14 14 13 13 13 13 12 11 9 8 9 10 11 10 12 12 13 14 17 17 17 15 14 12 12 11 13 14 14 14 13 13 12 12 12 12 11 12 11 11 12 12 12 13 13 13 13 13 13 13 13 13 13 13 13 12 12 12 11 11 11 11 10 10
24 21 19 20 22 21 20 20 18 17 16 16 16 16 15 15 15 16 14 13 13 13 13 12 12 12 12 11 10 9 9 10 10 10 11 12 13 11 12 16 18 17 16 15 15 15 14 14 15 16 14 13 13 12 12 13 14 13 13 13 13 14 14 14 14 15 15 15 15 15 15 15 15 16 16 15 15 15 15 14 14 14 14 13 13
23 21 21 22 22 21 21 21 20 18 17 17 17 16 16 15 14 14 14 13 12 11 11 11 10 10 10 10 9 9 10 12 12 10 10 11 12 12 12 15 18 19 17 16 16 17 17 16 16 16 15 14 13 13 13 14 15 15 15 14 15 15 16 16 16 17 17 17 18 18 18 18 18 18 18 18 18 18 18 18 18 17 17 17 17
22 22 23 23 22 21 21 21 20 19 18 17 16 15 15 15 14 14 13 12 11 10 10 10 10 10 10 9 9 9 10 11 12 10 10 11 13 14 14 15 16 18 18 17 17 19 19 17 15 14 15 16 16 15 15 15 16 17 16 16 16 17 17 18 19 19 19 20 21 21 21 21 21 21 22 22 22 22 22 22 22 22 21 21 21
24 25 24 23 23 22 21 21 20 20 19 17 15 15 15 15 14 13 13 12 11 10 10 10 10 9 9 8 8 9 8 9 9 10 11 13 14 15 15 15 15 15 16 16 18 19 19 17 15 14 14 16 17 16 15 15 16 18 18 18 19 19 19 20 21 20 21 22 23 24 24 24 24 24 25 26 26 26 26 27 27 26 26 25 25
26 27 25 24 24 23 21 21 21 20 19 17 16 15 15 14 13 13 13 13 13 12 11 10 10 8 7 7 9 10 9 9 9 9 11 11 10 10 11 12 12 12 13 16 17 19 18 16 14 14 14 15 16 16 14 13 15 19 21 21 22 22 21 21 21 21 22 24 25 26 27 27 28 28 28 29 30 30 31 31 31 31 30 30 30
27 26 25 25 24 23 21 21 20 19 18 17 15 15 14 13 12 12 13 14 14 13 12 11 10 9 9 10 12 12 10 10 9 8 7 6 5 5 7 8 10 11 13 14 15 15 14 13 12 12 12 14 15 16 15 16 18 20 20 20 22 24 23 23 24 23 23 25 26 28 29 30 31 31 32 33 33 34 34 35 35 36 35 35 34
28 26 25 25 23 22 21 20 19 18 17 16 15 15 14 13 12 13 14 15 15 14 13 13 12 12 13 13 15 15 13 12 12 10 10 8 6 6 7 7 7 8 8 7 7 7 9 11 11 11 12 14 16 18 19 20 20 20 19 19 22 24 22 22 24 25 25 26 28 30 30 31 32 33 34 36 36 36 37 38 38 40 40 40 39
29 27 25 25 23 22 20 19 19 18 17 16 15 14 14 13 12 13 14 15 16 15 14 15 15 16 17 17 17 16 14 12 12 11 11 10 9 10 10 9 7 5 4 3 3 3 5 7 8 9 11 12 14 16 18 20 20 20 22 22 22 22 21 19 20 22 21 19 22 27 29 29 30 33 34 35 36 37 37 38 38 40 41 40 40
29 27 26 26 23 21 20 19 19 19 19 17 15 14 15 15 13 13 14 15 16 16 16 17 19 19 20 19 18 16 14 12 11 11 11 11 10 10 9 8 7 7 5 5 5 4 3 3 3 2 3 3 4 5 8 11 13 15 17 20 21 21 21 19 19 20 18 15 15 19 23 24 25 28 29 29 31 32 31 31 31 32 32 31 31
30 28 28 26 24 22 21 20 19 19 19 19 17 15 15 15 15 14 15 15 15 17 18 20 21 20 20 18 16 15 14 13 11 10 10 11 11 11 10 10 9 9 8 7 6 5 4 2 2 1 1 2 2 3 4 6 8 9 10 12 16 19 19 18 19 19 18 15 14 15 17 18 20 23 25 24 24 26 26 26 25 25 25 26 25
30 29 28 26 25 23 22 21 20 20 19 18 17 16 15 14 15 16 16 17 18 20 21 22 21 20 18 17 15 14 14 12 11 10 10 10 10 10 10 10 9 8 7 6 5 4 3 2 2 2 2 3 4 5 7 8 8 9 8 7 8 11 12 13 15 16 15 15 15 14 15 17 18 21 23 23 22 23 23 24 24 24 25 26 27
31 31 29 28 27 25 24 24 23 21 20 18 16 15 15 15 16 17 18 20 21 22 22 21 20 19 18 16 15 15 14 12 11 11 10 9 9 9 9 8 8 7 6 5 5 5 4 4 4 4 4 4 5 5 6 7 7 7 7 7 8 10 10 10 12 13 12 12 13 11 13 16 17 17 19 20 20 20 20 21 22 22 22 23 25
31 32 31 29 29 28 26 25 25 23 21 20 18 17 17 17 18 19 21 22 23 22 21 19 18 18 16 15 14 14 13 12 11 10 8 7 7 8 8 8 7 6 6 6 6 5 5 4 4 4 5 5 5 6 6 7 7 7 8 9 10 9 9 9 10 9 8 8 9 8 11 15 15 15 17 18 18 18 18 18 19 19 18 18 19
31 32 31 29 28 28 26 25 25 25 23 21 20 19 18 18 19 22 23 23 21 20 18 17 17 16 14 13 12 11 10 9 8 7 6 5 5 6 7 6 5 4 5 6 5 5 5 4 4 4 4 4 4 5 5 5 5 5 5 6 6 5 6 7 7 8 8 6 7 8 9 11 11 13 15 16 15 15 15 16 17 17 16 17 17
31 31 30 28 27 26 26 24 24 24 22 21 20 20 20 19 20 22 22 20 18 16 14 14 14 14 13 11 10 10 9 8 7 5 5 4 5 6 6 5 4 3 3 3 3 4 4 4 4 4 4 4 4 4 4 5 5 4 4 4 5 6 7 5 4 7 7 5 6 9 8 8 10 12 14 15 14 13 12 12 14 15 15 16 16
31 30 29 28 26 25 24 23 22 22 21 19 18 19 19 18 18 19 18 18 19 18 15 14 14 13 13 12 10 10 9 8 7 7 6 5 6 7 6 4 3 4 4 3 4 3 3 4 4 5 5 5 5 5 5 6 6 6 5 4 5 6 7 5 4 5 4 3 6 11 9 8 9 11 12 11 9 8 10 11 13 15 15 15 15
Wind_Direction
203 203 202 201 200 205 208 204 197 192 187 180 177 171 164 162 163 168 174 175 169 157 140 168 181 184 181 174 170 165 155 148 145 150 153 150 147 149 152 156 146 130 128 127 123 121 118 113 107 107 107 105 105 104 100 96 95 91 89 92 92 90 84 84 89 90 95 99 95 90 86 87 84 80 73 70 73 72 72 78 82 80 76 76 75
203 201 201 202 202 205 204 197 191 191 191 186 182 178 171 169 171 176 182 185 185 185 190 195 187 187 186 179 177 176 167 156 151 154 157 156 158 161 162 160 145 134 130 125 123 124 121 122 119 116 112 108 111 113 103 99 99 97 94 95 93 95 93 89 91 86 85 92 94 94 91 86 81 75 66 66 67 64 70 77 78 77 76 77 72
203 201 200 202 203 205 202 196 191 185 185 185 184 183 178 176 179 186 194 194 196 206 215 206 189 183 184 182 180 178 171 161 156 158 160 160 161 161 159 148 133 127 131 135 134 129 126 127 126 124 126 123 119 120 116 109 107 106 102 105 101 98 97 93 96 93 89 92 91 91 94 91 82 72 72 76 72 72 81 83 81 78 77 75 68
207 205 202 202 204 205 203 197 190 178 174 178 181 181 180 180 183 189 194 197 205 211 211 200 186 179 181 186 184 179 172 163 159 161 162 162 159 156 151 142 136 134 137 142 140 131 127 125 123 125 130 129 125 120 119 120 120 116 109 104 96 92 97 98 98 97 96 96 91 88 93 97 91 82 83 83 83 86 88 86 84 82 77 73 72
214 212 209 208 209 207 205 197 187 180 176 178 182 182 182 183 186 189 194 204 209 198 188 183 180 177 180 189 186 177 171 164 162 164 164 162 159 155 151 147 150 154 148 142 137 131 129 122 118 127 133 123 124 131 124 121 123 120 118 114 105 103 104 104 102 97 96 96 94 93 91 95 99 96 92 87 87 91 90 87 85 84 80 77 76
219 218 215 212 212 210 206 198 191 191 189 189 191 190 189 191 191 193 201 208 200 185 183 181 176 175 180 187 182 174 170 165 164 166 164 161 158 156 155 155 160 164 154 142 136 132 136 133 119 117 138 147 139 144 135 118 119 125 132 125 118 116 113 111 110 106 106 104 99 97 93 90 92 93 95 92 89 89 90 88 84 82 79 78 76
220 220 218 215 214 212 205 201 196 197 202 196 192 192 196 200 199 201 202 198 194 189 193 192 181 176 180 182 176 172 169 168 170 168 165 163 161 161 161 163 167 165 152 143 141 143 146 142 131 100 112 155 158 147 139 128 135 147 138 128 129 135 127 116 112 115 117 110 100 99 99 95 93 92 95 94 91 89 87 85 83 81 80 79 76
218 219 220 217 215 210 204 205 198 195 204 197 191 194 199 201 200 206 202 192 191 190 191 189 176 169 174 175 173 173 172 174 175 169 168 168 165 166 167 168 167 164 157 152 153 161 145 128 140 112 84 122 140 142 143 138 151 159 138 135 152 155 137 119 117 121 115 108 104 104 105 101 98 95 94 94 92 90 88 86 84 81 80 81 78
217 219 220 220 218 213 208 205 195 194 199 195 193 191 191 197 196 200 202 190 182 177 173 171 163 160 165 168 171 173 178 183 180 173 173 173 168 168 171 170 165 162 160 160 163 166 146 120 133 126 101 105 118 129 130 127 137 146 147 153 151 137 135 134 134 131 121 118 118 116 114 110 109 106 99 97 94 92 89 86 84 83 81 80 82
215 217 218 222 223 219 215 201 190 196 200 193 192 188 189 199 191 185 192 190 181 172 165 158 150 150 155 162 168 176 187 187 180 179 177 176 174 173 175 174 170 168 167 168 171 166 147 137 135 131 129 121 119 122 120 123 116 111 127 144 139 123 119 134 145 138 133 132 128 123 119 115 115 112 104 99 96 92 89 87 87 86 83 80 83
215 216 217 221 223 221 216 197 189 199 203 195 192 193 194 195 183 174 178 184 182 173 162 149 138 141 145 151 161 175 187 183 177 182 183 180 180 179 180 179 175 175 179 180 181 179 158 155 159 151 147 141 130 121 120 133 135 109 101 111 128 135 130 144 155 142 143 141 134 129 123 119 115 111 108 103 99 97 96 96 92 89 88 85 82
215 216 216 220 223 221 213 195 190 200 207 200 192 193 192 186 179 174 170 169 170 167 161 147 131 127 131 140 151 167 184 188 183 185 188 187 184 183 184 183 180 179 182 187 189 193 187 177 179 170 159 154 146 137 137 145 152 142 124 115 116 120 139 160 164 149 154 149 139 132 126 123 117 112 111 106 106 105 103 99 90 84 82 80 79
215 215 216 219 221 219 213 199 193 199 209 208 198 192 185 179 175 173 173 166 160 161 162 147 126 117 120 124 127 137 172 217 197 182 193 196 190 188 193 194 193 190 188 188 191 197 199 190 189 188 185 187 190 185 181 185 176 164 179 190 167 128 131 158 168 170 158 143 134 129 125 122 119 117 117 113 110 105 99 93 85 79 75 74 78
214 214 215 217 219 219 217 207 196 194 205 211 207 200 187 182 176 174 177 170 161 161 163 152 130 123 123 115 103 102 112 156 173 177 214 206 193 190 198 208 209 203 196 192 194 196 194 193 197 203 213 227 236 239 226 218 205 189 199 213 209 194 175 167 177 179 156 136 126 124 123 123 123 121 116 108 105 103 99 95 88 82 80 81 82
213 213 214 215 218 221 218 210 199 195 203 206 205 200 192 190 186 180 176 166 161 163 167 166 146 130 116 111 102 93 111 118 136 181 220 200 193 194 201 211 213 212 206 199 199 201 199 200 209 215 224 236 242 244 241 230 220 214 213 225 227 200 186 186 187 182 163 141 127 124 121 121 124 120 111 105 106 107 106 104 100 97 93 91 90
213 213 215 215 218 220 214 208 202 200 203 202 198 197 193 193 191 187 178 166 161 166 171 176 165 148 124 99 76 53 162 133 119 128 168 170 196 205 208 209 206 211 215 207 201 209 218 219 222 225 228 237 242 244 246 243 234 224 222 230 230 208 191 187 188 189 178 156 139 133 125 123 127 123 117 121 122 118 118 117 107 106 109 109 106
215 215 217 217 215 212 210 209 206 202 203 205 202 196 194 195 194 193 187 177 170 170 172 176 178 170 152 134 111 39 230 143 130 113 151 174 196 216 214 205 201 211 219 211 204 215 228 230 229 228 230 235 241 246 248 249 247 238 240 235 222 219 199 185 185 192 186 170 157 149 140 139 142 139 141 143 146 146 137 127 112 110 121 124 119
218 217 217 217 212 209 210 211 209 203 203 209 207 198 196 199 200 198 194 188 179 173 174 180 184 176 158 147 149 200 175 148 136 83 157 171 195 222 219 203 204 216 214 204 202 214 224 225 227 228 232 237 242 247 248 248 252 249 250 242 226 220 205 193 187 189 193 178 164 160 154 155 154 153 157 149 147 147 138 133 125 128 146 152 143
219 217 216 216 214 212 212 210 210 208 203 205 206 202 201 202 202 202 198 194 188 179 178 181 185 186 179 167 180 217 181 165 162 170 155 171 190 207 207 198 202 201 193 190 195 207 210 213 224 235 240 248 252 254 253 251 254 257 257 247 229 220 213 202 188 186 193 177 166 169 165 167 166 158 155 146 144 150 152 160 148 137 146 146 132
217 217 216 217 218 218 216 211 211 211 204 205 207 205 205 202 201 205 203 200 199 192 185 184 188 193 194 195 229 206 184 181 179 168 141 151 171 180 184 186 192 181 176 183 190 196 204 214 229 243 249 254 260 263 263 255 256 265 263 249 226 216 216 207 193 187 188 183 182 184 180 177 168 155 153 154 160 172 177 169 147 131 128 125 121
216 218 218 220 222 221 219 213 211 210 206 208 209 207 206 203 200 204 206 205 206 203 196 193 196 196 193 200 205 177 178 187 183 169 146 156 166 147 163 172 182 178 179 187 189 193 203 220 231 241 252 259 263 264 264 256 257 267 259 240 216 210 213 208 199 191 189 192 190 190 188 171 158 158 166 177 192 198 176 147 137 129 128 125 119
215 217 219 222 222 219 217 213 210 210 209 209 210 209 207 204 201 202 206 207 206 207 208 207 206 202 198 199 184 168 168 174 180 175 160 154 160 150 160 163 166 173 184 192 192 195 197 209 228 237 254 271 276 261 252 253 255 258 243 225 210 208 210 206 200 197 204 205 190 186 181 156 156 174 179 191 203 183 159 141 137 133 129 125 117
213 215 216 217 216 214 213 213 209 207 209 210 209 210 208 204 203 203 206 209 208 209 214 217 213 206 205 206 199 190 188 189 187 180 169 157 150 147 157 160 166 172 186 198 195 194 197 210 227 247 284 295 297 243 204 213 219 222 214 203 200 204 204 202 198 201 218 222 188 176 167 153 168 176 161 175 185 164 151 144 142 139 131 126 119
213 213 212 209 209 210 210 209 207 205 206 206 204 206 208 205 205 204 205 208 211 213 216 218 214 207 207 213 216 213 207 204 196 188 184 175 162 149 149 154 162 176 183 191 190 194 208 222 235 260 300 303 290 195 160 147 140 140 157 168 175 187 193 196 197 201 216 224 177 159 159 168 181 166 156 169 164 151 152 153 151 144 136 129 123
213 211 209 206 205 206 207 205 204 202 199 198 197 200 204 204 203 203 203 205 209 215 217 218 217 213 212 216 222 220 214 215 208 197 193 178 161 147 148 155 147 150 174 183 183 195 214 226 241 258 271 292 266 203 176 167 151 133 132 143 155 167 181 190 193 197 203 200 175 167 178 191 173 159 165 165 157 159 163 164 160 151 142 135 131
212 206 204 206 207 206 205 202 199 196 194 195 196 198 201 202 203 203 202 204 208 214 215 215 217 216 216 218 221 222 218 220 216 203 198 186 168 153 146 147 133 136 156 175 179 190 210 221 232 241 242 262 244 213 204 206 185 153 137 135 147 160 176 186 186 190 193 187 182 188 205 202 172 166 174 172 172 177 176 174 168 159 151 144 142
215 209 207 208 208 206 202 197 193 190 191 193 196 200 202 202 204 205 204 205 209 212 214 213 214 213 214 218 221 222 222 223 223 215 208 203 188 167 154 141 122 141 150 161 181 195 208 216 225 232 236 242 231 219 216 215 196 169 155 148 150 157 170 179 182 188 192 189 193 206 215 200 181 183 189 188 189 187 181 180 174 165 160 153 149
215 214 218 215 206 199 196 191 189 190 191 195 198 197 198 200 203 205 204 206 208 213 217 216 215 215 214 219 221 221 225 227 227 224 216 213 203 179 166 158 150 152 161 165 186 201 210 216 218 224 233 232 225 221 219 216 199 176 165 161 157 159 168 180 185 192 196 198 206 216 214 200 193 198 198 195 192 186 182 180 172 166 160 155 152
209 205 216 222 206 191 189 187 188 193 194 197 200 196 195 201 203 204 205 207 210 213 218 218 216 216 215 217 221 221 225 228 229 227 219 214 204 190 181 175 167 159 157 191 204 198 206 218 218 220 226 222 218 218 219 216 201 189 183 181 177 172 175 185 194 200 204 207 212 214 210 203 201 200 196 192 188 183 181 176 172 170 164 164 166
202 193 199 217 212 188 183 187 189 194 197 197 199 198 199 203 204 207 207 208 211 212 216 219 215 213 213 213 216 219 222 226 226 219 213 212 207 197 192 187 181 175 164 165 202 203 202 215 220 223 227 218 213 216 220 217 205 200 199 199 203 196 191 193 198 204 206 207 208 206 206 203 201 198 194 191 188 185 183 178 177 178 179 184 185
197 189 187 207 218 198 183 186 188 191 196 197 199 201 202 204 205 206 207 208 211 210 211 214 212 211 212 212 213 213 217 221 215 208 206 210 212 204 198 196 195 191 177 161 168 204 208 218 223 223 231 227 216 216 219 219 212 209 210 213 217 215 212 209 207 208 207 206 204 201 200 198 197 196 195 194 193 190 186 183 182 185 188 193 196
194 189 184 199 218 206 188 187 187 186 190 193 197 202 204 206 207 204 203 204 205 207 208 210 211 213 214 215 214 212 215 218 209 202 203 206 209 206 203 201 200 201 190 175 158 180 203 219 228 227 232 234 226 221 220 220 217 215 215 218 223 226 225 221 216 212 209 207 204 200 198 197 197 199 199 200 197 192 190 187 186 189 192 196 201
192 189 184 191 208 206 194 191 189 185 186 188 191 197 199 203 205 203 201 202 202 205 208 210 210 212 214 214 214 212 216 216 203 194 192 195 199 202 205 205 204 205 200 190 173 165 192 209 223 230 233 232 231 229 225 221 220 222 223 223 225 229 230 225 218 212 207 207 204 201 201 201 203 206 206 206 204 200 198 195 193 195 197 201 205
189 187 182 185 200 204 198 195 191 188 191 191 190 192 193 197 199 199 199 199 203 205 208 211 209 208 212 212 209 210 212 205 193 190 192 193 196 199 205 210 211 212 213 206 191 179 190 202 213 224 230 230 231 232 228 221 221 229 232 231 229 227 227 225 221 217 212 208 207 207 209 210 212 214 214 214 214 212 210 208 209 210 211 215 219
189 187 180 185 199 203 198 197 195 193 195 196 196 195 195 196 195 194 195 197 201 203 205 209 207 208 211 210 207 207 204 195 190 193 199 200 201 202 209 216 217 218 222 223 213 203 199 202 211 220 224 226 228 231 229 221 223 234 239 239 236 229 227 226 224 223 219 215 213 214 216 219 220 222 223 224 224 224 225 224 224 225 226 230 236
190 185 179 186 195 197 196 197 197 196 198 200 200 198 197 198 194 193 194 195 198 202 203 203 203 207 208 205 205 205 200 195 193 196 200 202 205 209 215 219 220 221 224 228 228 222 211 208 214 219 222 226 227 226 226 222 223 233 240 243 240 234 232 230 230 229 226 224 224 224 226 227 228 230 231 233 235 235 236 236 236 237 239 241 244
187 180 179 186 191 193 196 198 196 197 199 199 197 196 197 198 196 195 194 194 197 201 199 196 198 202 205 207 208 204 201 197 194 196 200 203 207 214 222 222 221 223 227 233 234 229 223 220 217 215 217 222 223 223 225 226 227 232 239 244 243 240 238 237 236 234 230 230 231 231 233 234 234 237 239 241 244 245 246 246 246 246 247 249 251
181 179 182 188 193 195 195 195 195 195 195 195 195 196 197 196 194 195 196 195 198 201 195 191 196 199 203 207 203 199 202 199 192 192 201 207 212 219 226 225 223 224 227 233 232 227 227 227 220 214 213 215 219 222 225 228 232 236 239 243 244 241 240 241 242 240 236 235 236 236 238 239 240 242 244 246 249 250 252 253 254 254 254 255 255
178 180 184 189 193 192 189 189 191 191 191 192 194 196 196 196 196 197 200 200 201 202 197 193 197 201 205 204 189 183 195 196 191 200 210 213 218 225 228 225 224 224 221 222 223 221 223 224 220 217 217 216 218 223 231 236 238 240 241 245 246 244 243 245 247 245 242 242 243 243 243 244 246 248 249 252 253 254 256 256 257 258 258 258 259
177 180 183 188 188 185 183 184 186 188 191 193 194 196 197 198 200 199 198 197 196 197 196 194 195 194 190 182 168 167 185 195 196 205 209 207 209 215 217 215 216 213 206 208 212 214 215 216 216 217 220 219 218 221 231 237 236 239 240 242 247 250 249 250 253 252 249 248 248 249 249 249 251 253 253 255 257 258 259 260 260 261 261 261 261
178 182 183 186 186 182 181 182 183 186 190 190 189 189 191 192 194 192 189 189 190 191 188 182 177 169 159 157 153 152 160 163 156 156 160 161 166 175 181 192 200 198 195 199 205 208 210 211 212 215 216 220 221 219 225 232 237 243 245 244 249 255 256 255 256 256 254 254 254 254 254 254 255 257 258 259 261 262 261 262 263 264 264 264 263
182 184 183 184 184 182 180 179 181 182 182 182 180 180 182 184 185 186 185 185 185 184 178 167 158 152 146 142 137 135 137 134 127 124 128 131 132 130 128 142 164 172 171 174 186 201 213 216 218 218 220 226 229 227 232 242 247 251 255 255 256 260 261 260 262 262 260 258 258 259 262 262 260 261 263 264 266 267 266 267 268 268 269 268 267
184 184 183 182 181 181 179 177 176 175 173 172 172 175 179 180 181 182 181 179 177 175 170 158 148 144 140 134 129 130 132 130 126 124 122 121 124 124 123 125 130 136 146 176 196 202 213 214 213 216 225 235 240 238 242 250 255 258 262 263 261 261 259 258 264 270 270 268 265 265 269 272 268 267 269 271 273 273 272 274 276 276 275 274 273
180 181 180 180 178 177 176 174 171 169 167 165 165 170 175 178 182 179 174 172 170 167 162 153 146 144 141 136 133 132 131 129 128 126 122 121 121 122 124 128 131 135 151 175 184 172 162 170 170 184 226 250 253 249 254 260 264 268 269 264 260 258 256 254 258 268 278 287 285 276 278 283 279 275 276 278 281 282 282 284 286 285 285 285 283
174 172 172 172 170 170 170 168 165 163 161 159 159 163 168 176 184 180 170 166 163 159 157 153 150 148 145 142 139 135 133 133 133 133 131 128 125 122 123 126 127 129 134 137 141 140 135 133 116 72 342 333 350 345 323 308 301 300 289 273 262 256 254 257 262 271 281 289 296 293 288 289 287 283 284 286 288 293 296 296 296 296 297 297 294
165 162 161 160 157 158 160 159 157 155 156 157 158 160 162 170 179 177 169 164 159 156 156 156 154 152 150 149 145 141 138 137 137 137 136 132 125 120 118 116 111 107 105 100 94 84 73 60 36 21 352 334 333 326 316 311 310 312 310 295 274 264 264 267 271 280 288 292 298 299 292 291 291 288 289 293 297 300 301 300 297 294 295 294 293
158 155 152 150 149 147 148 150 149 147 148 150 154 158 162 166 170 169 164 158 154 152 153 154 153 150 148 146 144 143 142 140 137 133 130 129 126 118 109 101 92 82 72 61 48 33 20 9 359 355 344 332 321 307 301 298 294 294 294 292 293 294 293 289 288 294 300 304 306 298 285 291 298 295 296 304 308 308 306 302 298 296 295 292 288
144 142 141 141 142 141 140 142 143 140 138 142 146 151 158 164 164 161 156 153 150 148 147 146 144 141 140 141 141 140 138 136 133 130 129 130 127 116 104 94 83 71 59 47 35 23 10 358 346 339 332 327 315 301 298 296 289 284 279 280 289 297 301 304 307 313 322 325 326 310 289 295 307 309 311 316 318 316 313 309 308 309 308 303 296
130 131 132 131 132 136 139 140 139 137 135 137 140 143 150 158 160 156 152 148 142 139 136 134 134 135 137 140 143 144 140 133 129 133 144 148 137 122 113 106 97 82 70 58 43 31 23 10 1 356 348 338 325 310 308 312 311 305 295 291 295 303 311 312 309 319 330 333 342 342 317 309 320 321 319 323 323 320 319 317 318 319 318 315 312
124 123 125 125 124 128 134 137 138 138 137 138 141 144 148 154 156 152 146 140 133 130 126 125 128 132 134 135 142 147 144 136 134 142 152 162 155 138 127 124 112 85 70 62 48 42 34 23 18 16 8 3 357 341 334 336 337 336 331 323 314 312 318 320 310 323 333 336 357 2 344 324 330 330 327 328 323 315 313 313 315 318 319 319 317
120 119 119 119 116 116 122 127 132 135 137 141 147 149 150 153 153 150 147 143 138 137 138 137 134 131 131 131 132 135 132 130 134 137 137 144 144 131 123 119 95 70 56 46 41 39 36 38 44 47 45 41 34 27 26 23 21 24 18 356 341 336 339 343 341 340 345 347 355 357 347 332 336 339 338 335 323 311 313 316 318 320 321 320 318